Location: Dehesa de la Cepeda
(40.6574°N, 4.3013°W)
Time: 20:59:16
(UTC+00:00)

Vanguard 2 Rocket - Pass Details

Date: 08 August 2021
Orbit: 556 x 3324 km, 32.9° (Epoch: 19 September)

Event Time Altitude Azimuth Distance (km) Brightness Sun altitude
Rises 07:41:38 0° 258° (WSW) 3,264 9.2 25.2°
Reaches altitude 10° 07:44:36 10° 247° (WSW) 2,090 8.3 25.8°
Maximum altitude 07:48:29 29° 187° (S) 1,076 7.5 26.5°
Drops below altitude 10° 07:51:55 10° 126° (SE) 1,825 9.5 27.1°
Sets 07:54:19 0° 114° (ESE) 2,767 10.5 27.6°
